Location: Baia Mare
(47.6567°N, 23.5850°E)
Time: 04:42:12

ISS - Pass Details

Date: 15 March 2018
Orbit: 403 x 406 km, 51.6° (Epoch: 24 March)

Event Time Altitude Azimuth Distance (km) Brightness Sun altitude
Exits shadow 05:29:44 18° 292° (WNW) 1,076 -2.2 -12.5°
Maximum altitude 05:32:03 83° 206° (SSW) 413 -3.9 -12.1°
Drops below altitude 10° 05:35:19 10° 118° (ESE) 1,460 -0.2 -11.6°
Sets 05:37:24 0° 117° (ESE) 2,317 1.0 -11.2°
